Location: Burbank
(38.7788°N, 114.0429°W)
Time: 09:57:45
(UTC+00:00)

Courier 1B Rocket - Pass Details

Date: 11 May 2026
Orbit: 920 x 1201 km, 28.2° (Epoch: 10 June)

Event Time Altitude Azimuth Distance (km) Brightness Sun altitude
Rises 22:35:33 0° 258° (WSW) 3,853 8.9 45.4°
Reaches altitude 10° 22:39:45 10° 235° (SW) 2,957 8.5 44.6°
Maximum altitude 22:43:20 14° 205° (SSW) 2,692 7.9 43.9°
Drops below altitude 10° 22:47:00 10° 176° (S) 3,045 7.8 43.2°
Sets 22:51:28 0° 153° (SSE) 4,046 8.1 42.3°
